User: anonymous   Login
Location: Remedello Sotto
(45.2500°N, 10.3667°E)
Time: 02:21:11
(UTC+00:00)
Language:

Cosmos 1726 Rocket - Orbit

View from above orbital plane
View from above orbital plane
View from above satellite
View from above satellite

Ground track
Ground track

The orbit data is extracted from the following two-line orbital elements,

1 16496U 86006B   24111.59487344  .00001468  00000-0  16797-3 0  9991
2 16496  82.5273 186.5245 0020466  96.7267  22.9939 14.85202243 47018
Epoch (UTC): 20 April 2024 14:16:37
Eccentricity: 0.0020466
inclination: 82.5273°
perigee height: 598 km
apogee height: 627 km
right ascension of ascending node: 186.5245°
argument of perigee: 96.7267°
revolutions per day: 14.85202243
mean anomaly at epoch: 22.9939°
orbit number at epoch: 4701

The dashed part of the orbit path shows where the satellite is in the earth's shadow,  

DLR